Location: Karcze
(52.0945°N, 22.4786°E)
Time: 00:18:01
(UTC+00:00)

A-11 Canister half - Pass Details

Date: 07 August 2021
Orbit: 1515 x 1685 km, 47.2° (Epoch: 19 September)

Event Time Altitude Azimuth Distance (km) Brightness Sun altitude
Rises 16:38:56 0° 263° (W) 4,801 13.2 12.3°
Reaches altitude 10° 16:42:00 10° 261° (W) 3,838 12.7 11.8°
Maximum altitude 16:51:43 68° 182° (S) 1,762 9.5 10.3°
Drops below altitude 10° 17:01:44 10° 102° (ESE) 3,942 10.5 8.8°
Sets 17:04:56 0° 100° (E) 4,937 11.0 8.4°
